Location: Unnamed Road
(35.9029°N, 51.9749°E)
Time: 11:01:54
(UTC+04:30)

Vanguard 3 - All Passes

Search period start: 26 May 2020 00:00
Search period end: 05 June 2020 00:00
Orbit: 510 x 3261 km, 33.3° (Epoch: 24 May)

Date Brightness Start Highest point End Pass type
(mag) Time Alt. Az. Time Alt. Az. Time Alt. Az.
26 May - 02:16:57 10° S 02:27:41 20° SSE 02:35:58 10° ESE visible
26 May - 04:28:15 10° SW 04:42:03 43° SSE 04:50:19 10° E visible
26 May - 06:44:01 10° WSW 06:55:19 68° S 07:01:31 10° E daylight
26 May - 09:00:03 10° W 09:07:27 64° SSW 09:11:57 10° ESE daylight
26 May - 11:14:53 10° WSW 11:18:18 20° SSW 11:21:08 10° SSE daylight
27 May - 01:06:16 10° SSE 01:11:52 12° SE 01:16:55 10° SE visible
27 May - 03:12:25 10° SSW 03:26:40 34° SSE 03:36:09 10° E visible
27 May - 05:27:03 10° WSW 05:40:41 60° SSE 05:48:17 10° E daylight
27 May - 07:43:42 10° W 07:53:32 74° S 07:59:00 10° E daylight
27 May - 09:59:15 10° W 10:05:05 39° SSW 10:09:00 10° SE daylight
28 May - 01:57:46 10° SSW 02:10:57 25° SSE 02:20:54 10° E visible
28 May - 04:10:13 10° SW 04:25:34 50° SSE 04:34:41 10° E visible
28 May - 06:26:42 10° WSW 06:39:09 73° S 06:45:54 10° E daylight
28 May - 08:43:16 10° W 08:51:31 62° SSW 08:56:20 10° ESE daylight
28 May - 10:58:53 10° WSW 11:02:15 17° SW 11:05:00 10° S daylight
29 May - 00:45:21 10° S 00:55:03 16° SE 01:03:25 10° ESE visible
29 May - 02:54:03 10° SSW 03:09:58 40° SSE 03:20:32 10° E visible
29 May - 05:09:24 10° WSW 05:24:19 66° SSE 05:32:36 10° E visible
29 May - 07:26:37 10° W 07:37:28 75° S 07:43:25 10° E daylight
29 May - 09:42:42 10° W 09:49:05 36° SSW 09:53:14 10° SE daylight
30 May - 01:39:00 10° SSW 01:54:04 30° SSE 02:05:26 10° E visible
30 May - 03:52:16 10° SW 04:08:56 56° SSE 04:18:57 10° E visible
30 May - 06:09:19 10° WSW 06:22:55 76° S 06:30:16 10° E daylight
30 May - 08:26:23 10° W 08:35:29 59° SSW 08:40:42 10° ESE daylight
30 May - 10:42:51 10° WSW 10:46:07 15° SW 10:48:47 10° S daylight
31 May - 00:25:46 10° S 00:38:03 20° SE 00:48:36 10° ESE visible
31 May - 02:35:51 10° SW 02:53:08 46° SSE 03:04:45 10° E visible
31 May - 04:51:44 10° WSW 05:07:50 71° S 05:16:52 10° E visible
31 May - 07:09:25 10° W 07:21:20 74° S 07:27:47 10° ESE daylight
31 May - 09:26:04 10° W 09:33:00 34° SSW 09:37:26 10° SSE daylight
31 May - 23:17:30 10° SSE 23:22:06 11° SE 23:26:33 10° ESE visible
01 Jun - 01:20:32 10° SSW 01:37:02 35° SSE 01:49:42 10° E visible
01 Jun - 03:34:25 10° SW 03:52:13 62° SSE 04:03:06 10° E visible
01 Jun - 05:51:53 10° W 06:06:36 78° S 06:14:35 10° E daylight
01 Jun - 08:09:22 10° W 08:19:22 56° SSW 08:25:01 10° ESE daylight
01 Jun - 10:26:47 10° WSW 10:29:55 14° SW 10:32:28 10° SSW daylight
02 Jun - 00:06:51 10° S 00:20:55 25° SE 00:33:10 10° E visible
02 Jun - 02:17:49 10° SW 02:36:08 51° SSE 02:48:49 10° E visible
02 Jun - 04:34:06 10° WSW 04:51:15 75° S 05:01:05 10° E visible
02 Jun - 06:52:08 10° W 07:05:07 73° S 07:12:07 10° ESE daylight
02 Jun - 09:09:19 10° W 09:16:48 32° SW 09:21:34 10° SSE daylight
02 Jun - 22:56:16 10° SSE 23:04:58 15° SE 23:13:22 10° ESE visible
03 Jun - 01:02:21 10° SSW 01:19:51 40° SSE 01:33:43 10° E visible
03 Jun - 03:16:38 10° WSW 03:35:21 67° SSE 03:47:10 10° E visible
03 Jun - 05:34:24 10° W 05:50:10 79° S 05:58:51 10° E daylight
03 Jun - 07:52:15 10° W 08:03:10 53° SSW 08:09:17 10° SE daylight
03 Jun - 10:10:45 10° WSW 10:13:36 13° SW 10:16:00 10° SSW daylight
03 Jun - 23:48:24 10° SSW 00:03:37 29° SE 00:17:20 10° E visible
04 Jun - 01:59:58 10° SW 02:19:01 57° SSE 02:32:45 10° E visible
04 Jun - 04:16:30 10° WSW 04:34:35 78° S 04:45:13 10° E visible
04 Jun - 06:34:46 10° W 06:48:47 71° SSW 06:56:24 10° ESE daylight
04 Jun - 08:52:29 10° W 09:00:30 30° SW 09:05:38 10° SSE daylight
04 Jun - 22:36:50 10° S 22:47:41 18° SE 22:58:26 10° E visible
